| time (UTC) | temp F | wind direction | speed MPH | gust MPH | rain 1hr in | rain 24hr in | rain mn in | humidity % | barometer mb |
| 20260903091556 | 60 | 71 | 0.0 | 2.0 | 0.32 | 0.70 | 0.70 | 94 | 932.3 |
| 20260903090048 | 60 | 322 | 0.0 | 2.0 | 0.39 | 0.70 | 0.70 | 94 | 932.6 |
| 20260903084545 | 61 | 311 | 0.0 | 2.0 | 0.37 | 0.68 | 0.68 | 93 | 934.2 |
| 20260903083044 | 61 | 299 | 0.0 | 3.0 | 0.28 | 0.59 | 0.59 | 93 | 935.7 |
| 20260903081548 | 61 | 261 | 0.0 | 2.0 | 0.08 | 0.37 | 0.37 | 93 | 936.0 |
| 20260903080042 | 61 | 252 | 0.0 | 1.0 | 0.24 | 0.31 | 0.31 | 93 | 935.1 |
| 20260903074542 | 61 | 275 | 0.0 | 1.0 | 0.31 | 0.31 | 0.31 | 92 | 934.7 |
| 20260903073045 | 62 | 274 | 0.0 | 1.0 | 0.31 | 0.31 | 0.31 | 89 | 935.4 |
| 20260903071536 | 62 | 275 | 0.0 | 1.0 | 0.28 | 0.28 | 0.28 | 85 | 936.0 |
| 20260903070031 | 67 | 265 | 5.0 | 16.0 | 0.06 | 0.06 | 0.06 | 72 | 937.1 |
| 20260903064527 | 73 | 276 | 6.0 | 20.0 | 0.00 | 0.00 | 0.00 | 60 | 935.6 |
| 20260903063025 | 73 | 188 | 2.0 | 10.0 | 0.00 | 0.00 | 0.00 | 64 | 935.3 |
| 20260903061522 | 71 | 136 | 0.0 | 8.0 | 0.00 | 0.00 | 0.00 | 67 | 934.2 |
| 20260903060018 | 72 | 113 | 2.0 | 8.0 | 0.00 | 0.00 | 0.00 | 67 | 932.6 |
| 20260903054516 | 72 | 115 | 2.0 | 7.0 | 0.00 | 0.00 | 0.00 | 66 | 932.6 |
| 20260903053015 | 72 | 133 | 1.0 | 8.0 | 0.00 | 0.00 | 0.00 | 66 | 932.5 |
| 20260903051516 | 73 | 95 | 1.0 | 9.0 | 0.00 | 0.00 | 0.00 | 65 | 932.4 |
| 20260903050015 | 73 | 107 | 2.0 | 9.0 | 0.00 | 0.00 | 0.00 | 65 | 932.1 |
| 20260903044511 | 74 | 112 | 3.0 | 9.0 | 0.00 | 0.00 | 0.00 | 64 | 932.1 |
| 20260903043009 | 74 | 96 | 2.0 | 9.0 | 0.00 | 0.00 | 0.00 | 63 | 933.0 |
| 20260903041508 | 74 | 116 | 3.0 | 12.0 | 0.00 | 0.00 | 0.00 | 63 | 933.0 |
| 20260903040009 | 75 | 105 | 2.0 | 9.0 | 0.00 | 0.00 | 0.00 | 63 | 933.1 |
| 20260903034516 | 75 | 104 | 2.0 | 12.0 | 0.00 | 0.00 | 0.00 | 63 | 933.2 |
| 20260903033006 | 75 | 130 | 2.0 | 8.0 | 0.00 | 0.00 | 0.00 | 63 | 933.5 |
| 20260903031505 | 76 | 91 | 2.0 | 9.0 | 0.00 | 0.00 | 0.00 | 62 | 933.7 |
| 20260903030005 | 76 | 151 | 2.0 | 11.0 | 0.00 | 0.00 | 0.00 | 61 | 933.7 |
| 20260903024504 | 77 | 106 | 2.0 | 9.0 | 0.00 | 0.00 | 0.00 | 61 | 933.5 |
| 20260903023003 | 77 | 132 | 2.0 | 10.0 | 0.00 | 0.00 | 0.00 | 60 | 933.6 |
| 20260903021503 | 78 | 121 | 2.0 | 9.0 | 0.00 | 0.00 | 0.00 | 58 | 933.5 |
| 20260903020002 | 78 | 113 | 2.0 | 13.0 | 0.00 | 0.00 | 0.00 | 57 | 933.2 |
| 20260903014501 | 79 | 105 | 3.0 | 11.0 | 0.00 | 0.00 | 0.00 | 55 | 933.2 |
| 20260903013001 | 80 | 100 | 2.0 | 7.0 | 0.00 | 0.00 | 0.00 | 53 | 933.3 |
| 20260903011600 | 81 | 158 | 3.0 | 12.0 | 0.00 | 0.00 | 0.00 | 51 | 933.2 |
| 20260903010100 | 82 | 134 | 3.0 | 11.0 | 0.00 | 0.00 | 0.00 | 50 | 933.2 |
| 20260903004609 | 82 | 98 | 3.0 | 10.0 | 0.00 | 0.00 | 0.00 | 50 | 933.1 |
| 20260903003057 | 83 | 102 | 4.0 | 10.0 | 0.00 | 0.00 | 0.00 | 49 | 933.2 |
| 20260903001557 | 83 | 106 | 3.0 | 11.0 | 0.00 | 0.00 | 0.00 | 48 | 933.3 |
| 20260903000056 | 84 | 105 | 3.0 | 13.0 | 0.00 | 0.00 | 0.00 | 47 | 933.2 |
| 20260902234554 | 86 | 105 | 4.0 | 12.0 | 0.00 | 0.00 | 0.00 | 44 | 933.2 |
| 20260902233102 | 86 | 136 | 5.0 | 12.0 | 0.00 | 0.00 | 0.00 | 44 | 933.3 |
| 20260902231552 | 87 | 91 | 5.0 | 16.0 | 0.00 | 0.00 | 0.00 | 44 | 933.5 |
| 20260902230050 | 86 | 111 | 4.0 | 9.0 | 0.00 | 0.00 | 0.00 | 44 | 933.7 |
| 20260902224553 | 87 | 167 | 4.0 | 17.0 | 0.00 | 0.00 | 0.00 | 43 | 933.7 |
| 20260902223103 | 88 | 123 | 3.0 | 12.0 | 0.00 | 0.00 | 0.00 | 41 | 933.7 |
| 20260902221548 | 89 | 103 | 4.0 | 13.0 | 0.00 | 0.00 | 0.00 | 40 | 933.7 |
| 20260902220045 | 89 | 127 | 4.0 | 13.0 | 0.00 | 0.00 | 0.00 | 39 | 933.9 |
| 20260902214543 | 89 | 113 | 4.0 | 12.0 | 0.00 | 0.00 | 0.00 | 39 | 934.1 |
| 20260902213042 | 89 | 115 | 4.0 | 15.0 | 0.00 | 0.00 | 0.00 | 40 | 934.1 |
| 20260902211540 | 88 | 77 | 3.0 | 11.0 | 0.00 | 0.00 | 0.00 | 39 | 934.3 |
| 20260902210039 | 89 | 105 | 3.0 | 11.0 | 0.00 | 0.00 | 0.00 | 39 | 934.5 |
| 20260902204544 | 89 | 111 | 4.0 | 11.0 | 0.00 | 0.00 | 0.00 | 39 | 934.8 |
| 20260902203033 | 88 | 173 | 5.0 | 13.0 | 0.00 | 0.00 | 0.00 | 40 | 934.9 |
| 20260902201533 | 88 | 109 | 3.0 | 8.0 | 0.00 | 0.00 | 0.00 | 40 | 935.1 |
| 20260902200029 | 87 | 139 | 4.0 | 9.0 | 0.00 | 0.00 | 0.00 | 41 | 935.3 |
| 20260902194528 | 87 | 103 | 3.0 | 9.0 | 0.00 | 0.00 | 0.00 | 42 | 935.4 |
| 20260902193024 | 86 | 107 | 3.0 | 15.0 | 0.00 | 0.00 | 0.00 | 45 | 935.7 |
| 20260902191520 | 86 | 111 | 4.0 | 10.0 | 0.00 | 0.00 | 0.00 | 45 | 935.9 |
| 20260902190017 | 85 | 126 | 3.0 | 11.0 | 0.00 | 0.00 | 0.00 | 46 | 936.2 |
| 20260902184513 | 85 | 101 | 2.0 | 10.0 | 0.00 | 0.00 | 0.00 | 46 | 936.5 |
| 20260902183033 | 85 | 119 | 5.0 | 13.0 | 0.00 | 0.00 | 0.00 | 45 | 936.5 |
| 20260902181508 | 84 | 83 | 4.0 | 16.0 | 0.00 | 0.00 | 0.00 | 45 | 936.7 |
| 20260902180007 | 83 | 115 | 4.0 | 12.0 | 0.00 | 0.00 | 0.00 | 45 | 937.0 |
| 20260902174601 | 81 | 123 | 4.0 | 12.0 | 0.00 | 0.00 | 0.00 | 47 | 937.0 |
| 20260902173116 | 81 | 100 | 6.0 | 11.0 | 0.00 | 0.00 | 0.00 | 46 | 937.1 |
| 20260902171557 | 80 | 113 | 4.0 | 12.0 | 0.00 | 0.00 | 0.00 | 47 | 937.3 |
| 20260902170056 | 80 | 142 | 5.0 | 12.0 | 0.00 | 0.00 | 0.00 | 46 | 937.4 |
| 20260902164557 | 80 | 112 | 3.0 | 10.0 | 0.00 | 0.00 | 0.00 | 45 | 937.5 |
| 20260902163048 | 78 | 128 | 3.0 | 9.0 | 0.00 | 0.00 | 0.00 | 46 | 937.7 |
| 20260902161543 | 76 | 103 | 3.0 | 9.0 | 0.00 | 0.00 | 0.00 | 51 | 937.8 |
| 20260902160039 | 75 | 102 | 3.0 | 11.0 | 0.00 | 0.00 | 0.00 | 53 | 938.0 |
| 20260902154539 | 75 | 109 | 4.0 | 10.0 | 0.00 | 0.00 | 0.00 | 53 | 938.1 |
| 20260902153034 | 74 | 106 | 2.0 | 7.0 | 0.00 | 0.00 | 0.00 | 53 | 938.2 |
| 20260902151535 | 73 | 109 | 2.0 | 9.0 | 0.00 | 0.00 | 0.00 | 53 | 938.4 |
| 20260902150027 | 72 | 107 | 1.0 | 10.0 | 0.00 | 0.00 | 0.00 | 54 | 938.5 |
| 20260902144523 | 71 | 146 | 0.0 | 3.0 | 0.00 | 0.00 | 0.00 | 56 | 938.6 |
| 20260902143021 | 69 | 148 | 0.0 | 6.0 | 0.00 | 0.00 | 0.00 | 59 | 938.6 |
| 20260902141515 | 67 | 111 | 0.0 | 3.0 | 0.00 | 0.00 | 0.00 | 64 | 938.7 |
| 20260902140013 | 64 | 80 | 0.0 | 1.0 | 0.00 | 0.00 | 0.00 | 69 | 938.8 |
| 20260902134508 | 60 | 80 | 0.0 | 1.0 | 0.00 | 0.00 | 0.00 | 77 | 938.6 |
| 20260902133011 | 58 | 79 | 0.0 | 0.0 | 0.00 | 0.00 | 0.00 | 78 | 938.9 |
| 20260902131508 | 57 | 79 | 0.0 | 1.0 | 0.00 | 0.00 | 0.00 | 79 | 938.7 |
| 20260902130007 | 56 | 86 | 0.0 | 1.0 | 0.00 | 0.00 | 0.00 | 79 | 938.8 |
| 20260902124504 | 56 | 93 | 0.0 | 0.0 | 0.00 | 0.00 | 0.00 | 77 | 938.7 |
| 20260902123004 | 57 | 93 | 0.0 | 1.0 | 0.00 | 0.00 | 0.00 | 77 | 938.5 |
| 20260902121502 | 57 | 94 | 0.0 | 0.0 | 0.00 | 0.00 | 0.00 | 76 | 938.5 |
| 20260902120002 | 58 | 94 | 0.0 | 0.0 | 0.00 | 0.00 | 0.00 | 75 | 938.5 |
| 20260902114502 | 58 | 98 | 0.0 | 2.0 | 0.00 | 0.00 | 0.00 | 77 | 938.5 |
| 20260902113101 | 56 | 98 | 0.0 | 3.0 | 0.00 | 0.00 | 0.00 | 80 | 938.6 |
| 20260902111601 | 57 | 88 | 0.0 | 0.0 | 0.00 | 0.00 | 0.00 | 77 | 938.7 |
| 20260902104605 | 59 | 88 | 0.0 | 1.0 | 0.00 | 0.00 | 0.00 | 73 | 938.8 |
| 20260902103105 | 59 | 88 | 0.0 | 1.0 | 0.00 | 0.00 | 0.00 | 72 | 938.8 |
| 20260902101556 | 60 | 88 | 0.0 | 1.0 | 0.00 | 0.00 | 0.00 | 72 | 938.8 |
| 20260902100048 | 60 | 88 | 0.0 | 2.0 | 0.00 | 0.00 | 0.00 | 70 | 938.9 |
| 20260902094547 | 60 | 80 | 0.0 | 1.0 | 0.00 | 0.00 | 0.00 | 70 | 938.8 |
| 20260902093047 | 60 | 79 | 0.0 | 1.0 | 0.00 | 0.00 | 0.00 | 70 | 938.8 |